Regional Weather Roundup
Issued by NWS

Home | Current Version | Previous Version | Graphics & Text | Print | Product List | Glossary On
Versions: 1 2 3 4 5 6 7 8 9 10 11 12 13 14 15 16 17 18 19 20 21 22 23 24 25 26 27 28 29 30 31 32 33 34 35 36 37 38 39 40 41 42 43 44 45 46 47 48 49 50
000
ASUS43 KLOT 032000
RWRIL

ILLINOIS REGIONAL WEATHER ROUNDUP
NATIONAL WEATHER SERVICE CHICAGO/ROMEOVILLE IL
300 PM CDT FRI JUL 03 2015

NOTE: "FAIR" INDICATES FEW OR NO CLOUDS BELOW 12,000 FEET WITH NO
SIGNIFICANT WEATHER AND/OR OBSTRUCTIONS TO VISIBILITY.

* THESE STATIONS ARE NOT UNDER NWS QUALITY CONTROL. THEY ALSO MAY NOT
  REPORT WEATHER SUCH AS PRECIPITATION OR FOG.

ILZ001-002-007-009-015-016-024-032100-
NORTHWEST ILLINOIS

CITY           SKY/WX    TMP DP  RH WIND       PRES   REMARKS
MOLINE         SUNNY     77  56  48 S3        29.95F
STERLING*      MOSUNNY   79  57  47 SW3       29.95F HX  80
$$

ILZ003-004-008-010-011-017-018-032100-
NORTH CENTRAL ILLINOIS

CITY           SKY/WX    TMP DP  RH WIND       PRES   REMARKS
ROCKFORD       MOSUNNY   77  56  48 CALM      29.96F
$$

ILZ005-006-012>014-019>023-032100-
NORTHEAST ILLINOIS

CITY           SKY/WX    TMP DP  RH WIND       PRES   REMARKS
CHICAGO-OHARE  PTSUNNY   76  54  46 NE7       29.94F
CHICAGO-MIDWAY PTSUNNY   76  54  46 E12       29.94F
AURORA         MOSUNNY   77  55  46 CALM      29.95F
LANSING*       MOSUNNY   74  52  44 NE6       29.95F
WAUKEGAN       SUNNY     71  55  56 E9        29.95F
DUPAGE AIRPORT MOSUNNY   76  55  48 NE6       29.94F
WHEELING       MOSUNNY   75  53  46 VRB6      29.96F
NORTHERLY ISL    N/A     66  58  75 NE8         N/A
$$

LMZ740>746-032100-
SOUTHERN LAKE MICHIGAN

STATION/POSITION SKY/WX   TEMP    WIND        PRES    VSBY  WAVE
                          AIR SEA DIR/SP/G                  HT/PER
                          (F)     (DEG/KT/KT) (MB)    (MI)  (FT/S)
HARRISON CRIB              62      40/  6/  8   N/A
BURNHAM HARBOR             66      40/  6/  9   N/A
CALUMET HARBOR             68     360/  5/  7   N/A
BURNS HARBOR               64      10/ 10/ 11 1015.2F
MICHIGAN CITY              63      10/  7/  9   N/A
MICHIGAN CITY 6N           63 64  360/ 10/ 12   N/A           1/ 4
ST. JOSEPH                 63 63                N/A           1/ 2
$$

ILZ025>027-034>036-040-047-049-050-058-095>099-032100-
WEST-CENTRAL ILLINOIS

CITY           SKY/WX    TMP DP  RH WIND       PRES   REMARKS
QUINCY         SUNNY     79  60  52 N8        29.95F HX  80
MACOMB*        MOSUNNY   75  61  61 NE3       29.97F
$$

ILZ028>032-037-038-041>044-048-051>054-059>061-032100-
CENTRAL ILLINOIS

CITY           SKY/WX    TMP DP  RH WIND       PRES   REMARKS
DECATUR        PTSUNNY   76  66  71 N8        29.92S
PEORIA         MOSUNNY   80  60  50 NE5       29.94S HX  81
SPRINGFIELD    MOSUNNY   80  67  64 NE9       29.92F HX  82
TAYLORVILLE    NOT AVBL
$$

ILZ033-039-045-046-055>057-062-063-032100-
EAST-CENTRAL ILLINOIS

CITY           SKY/WX    TMP DP  RH WIND       PRES   REMARKS
CHAMPAIGN      CLOUDY    76  64  66 NE8       29.93R
MATTOON        PTSUNNY   78  68  71 N14       29.90S HX  80
$$

ILZ079-100>102-032100-
SOUTHWEST ILLINOIS

CITY           SKY/WX    TMP DP  RH WIND       PRES   REMARKS
BELLEVILLE     SUNNY     81  69  68 VRB2      29.88F HX  84
CAHOKIA*       MOSUNNY   82  63  52 NE3       29.89F HX  83
SPARTA*        PTSUNNY   81  65  59 W3        29.91S HX  82
$$

ILZ064>066-069>071-074>076-080>082-084>086-088>090-092>094-032100-
SOUTH-CENTRAL ILLINOIS

CITY           SKY/WX    TMP DP  RH WIND       PRES   REMARKS
CARBONDALE     PTSUNNY   81  66  60 NW6       29.88F HX  83
MARION         MOSUNNY   82  66  57 NW6       29.89F HX  85
MT. VERNON     PTSUNNY   81  66  61 CALM      29.88F HX  83
SALEM*         MOSUNNY   82  68  62 N8        29.89F HX  85
$$

ILZ067-068-072-073-078-083-087-091-032100-
SOUTHEAST ILLINOIS

CITY           SKY/WX    TMP DP  RH WIND       PRES   REMARKS
LAWRENCEVILLE  PTSUNNY   78  68  71 NE8       29.87F HX  80
HARRISBURG*    PTSUNNY   82  66  58 W7        29.88F HX  84
$$

ABBREVIATIONS USED IN REMARKS
   TC - TEMPERATURE IN CELSIUS
  WCI - WIND CHILL INDEX
   HX - HEAT INDEX
  VSB - VISIBILITY
$$




USA.gov is the U.S. government's official web portal to all federal, state and local government web resources and services.